Weather History for Decorah, IA

Change the Weather History Date:

Monday, March 25, 2013

  Actual Average Record
Temperature  
Mean Temperature 28 °F -  
Max Temperature 33 °F 47 °F 78 °F (2007)
Min Temperature 23 °F 27 °F 1 °F (1952)
Degree Days  
Heating Degree Days 37    
Moisture  
Dew Point 20 °F    
Average Humidity 70    
Maximum Humidity 86    
Minimum Humidity 60    
Precipitation  
Precipitation 0.00 in - - ()
Sea Level Pressure  
Sea Level Pressure 30.02 in    
Wind  
Wind Speed 12 mph (NNW)    
Max Wind Speed 20 mph    
Max Gust Speed 25 mph    
Visibility 10 miles    
Events      
Averages and records for this station are not official NWS values.
T = Trace of Precipitation, MM = Missing Value Source: NWS Daily Summary

Daily Weather History Graph

Daily Weather History Graph

Search for Another Location

Airport:

Trip Planner

Search our weather history database for the weather conditions in past years. The results will help you decide how hot, cold, wet, or windy it might be!

Date:

Astronomy

Mar. 25, 2013 Rise Set
Actual Time 7:00 AM CDT 7:25 PM CDT
Civil Twilight 6:32 AM CDT 7:54 PM CDT
Nautical Twilight 5:58 AM CDT 8:27 PM CDT
Astronomical Twilight 5:24 AM CDT 9:02 PM CDT
Moon 5:56 PM CDT (3/25) 5:46 AM CDT (3/25)
Length of Visible Light 13h 21m
Length of Day
12h 24m
Waxing Gibbous, 96% of the Moon is Illuminated
Mar 25
Waxing Gibbous
Mar 27
Full
Apr 2
Last Quarter
Apr 10
New
Apr 18
First Quarter

Hourly Weather History & Observations

Time (CDT) Temp. Windchill Dew Point Humidity Pressure Visibility Wind Dir Wind Speed Gust Speed Precip Events Conditions
12:15 AM 30.2 °F 20.2 °F 23.0 °F 75% 29.89 in 10.0 mi North 12.7 mph - N/A   Overcast
12:35 AM 30.2 °F 19.3 °F 23.0 °F 75% 29.88 in 10.0 mi North 15.0 mph - N/A   Overcast
12:55 AM 30.2 °F 20.2 °F 24.8 °F 80% 29.88 in 10.0 mi North 12.7 mph 23.0 mph N/A   Overcast
1:15 AM 30.2 °F 19.3 °F 24.8 °F 80% 29.88 in 10.0 mi North 15.0 mph 21.9 mph N/A   Overcast
1:35 AM 30.2 °F 20.2 °F 24.8 °F 80% 29.89 in 10.0 mi North 12.7 mph 19.6 mph N/A   Overcast
1:55 AM 28.4 °F 18.5 °F 24.8 °F 86% 29.89 in 10.0 mi North 11.5 mph - N/A   Overcast
2:15 AM 28.4 °F 19.1 °F 23.0 °F 80% 29.90 in 10.0 mi North 10.4 mph 20.7 mph N/A   Overcast
2:35 AM 28.4 °F 17.5 °F 21.2 °F 74% 29.90 in - North 13.8 mph 23.0 mph N/A   Overcast
2:55 AM 28.4 °F 18.0 °F 21.2 °F 74% 29.90 in 10.0 mi North 12.7 mph - N/A   Overcast
3:15 AM 28.4 °F 19.1 °F 21.2 °F 74% 29.91 in 10.0 mi North 10.4 mph - N/A   Overcast
3:35 AM 28.4 °F 19.1 °F 19.4 °F 69% 29.90 in 10.0 mi North 10.4 mph 18.4 mph N/A   Overcast
3:55 AM 26.6 °F 16.8 °F 19.4 °F 74% 29.91 in 10.0 mi North 10.4 mph 18.4 mph N/A   Overcast
4:15 AM 26.6 °F 15.2 °F 19.4 °F 74% 29.90 in 10.0 mi North 13.8 mph - N/A   Overcast
4:35 AM 26.6 °F 16.2 °F 17.6 °F 69% 29.90 in 10.0 mi North 11.5 mph - N/A   Overcast
4:55 AM 26.6 °F 14.7 °F 17.6 °F 69% 29.91 in 10.0 mi North 15.0 mph 20.7 mph N/A   Overcast
5:15 AM 26.6 °F 15.2 °F 17.6 °F 69% 29.91 in 10.0 mi North 13.8 mph 19.6 mph N/A   Overcast
5:35 AM 24.8 °F 12.4 °F 17.6 °F 74% 29.92 in 10.0 mi North 15.0 mph 20.7 mph N/A   Overcast
6:15 AM 24.8 °F 14.6 °F 15.8 °F 69% 29.93 in 10.0 mi North 10.4 mph - N/A   Clear
6:35 AM 23.0 °F 13.1 °F 15.8 °F 74% 29.94 in 10.0 mi North 9.2 mph - N/A   Clear
6:55 AM 23.0 °F 11.7 °F 15.8 °F 74% 29.95 in 10.0 mi North 11.5 mph - N/A   Mostly Cloudy
7:15 AM 23.0 °F 12.4 °F 15.8 °F 74% 29.95 in 10.0 mi NNW 10.4 mph - N/A   Overcast
7:35 AM 23.0 °F 11.7 °F 15.8 °F 74% 29.96 in 10.0 mi North 11.5 mph - N/A   Mostly Cloudy
7:55 AM 23.0 °F 11.7 °F 17.6 °F 80% 29.97 in 10.0 mi NNW 11.5 mph - N/A   Overcast
8:15 AM 24.8 °F 14.6 °F 17.6 °F 74% 29.98 in 10.0 mi NNW 10.4 mph 16.1 mph N/A   Overcast
8:35 AM 24.8 °F 14.0 °F 17.6 °F 74% 29.99 in 10.0 mi North 11.5 mph - N/A   Overcast
8:55 AM 24.8 °F 14.6 °F 17.6 °F 74% 29.99 in 10.0 mi North 10.4 mph - N/A   Overcast
9:15 AM 24.8 °F 14.0 °F 17.6 °F 74% 30.00 in 10.0 mi North 11.5 mph - N/A   Overcast
9:35 AM 24.8 °F 12.9 °F 17.6 °F 74% 30.00 in 10.0 mi North 13.8 mph - N/A   Overcast
9:55 AM 24.8 °F 14.6 °F 19.4 °F 80% 30.01 in - NNW 10.4 mph - N/A   Overcast
10:15 AM 26.6 °F 16.2 °F 19.4 °F 74% 30.02 in 10.0 mi NNW 11.5 mph 17.3 mph N/A   Overcast
10:35 AM 26.6 °F 14.7 °F 19.4 °F 74% 30.02 in 10.0 mi North 15.0 mph 21.9 mph N/A   Overcast
10:55 AM 26.6 °F 16.2 °F 19.4 °F 74% 30.02 in 10.0 mi NNW 11.5 mph - N/A   Mostly Cloudy
11:15 AM 26.6 °F 14.3 °F 19.4 °F 74% 30.02 in 10.0 mi NNW 16.1 mph - N/A   Clear
11:35 AM 28.4 °F 17.5 °F 19.4 °F 69% 30.02 in 10.0 mi NW 13.8 mph - N/A   Clear
11:55 AM 28.4 °F 18.5 °F 19.4 °F 69% 30.03 in 10.0 mi NNW 11.5 mph 19.6 mph N/A   Clear
12:15 PM 28.4 °F 18.5 °F 19.4 °F 69% 30.03 in 10.0 mi NNW 11.5 mph - N/A   Clear
12:35 PM 30.2 °F 19.8 °F 21.2 °F 69% 30.03 in 10.0 mi NNW 13.8 mph - N/A   Clear
12:55 PM 30.2 °F 18.9 °F 21.2 °F 69% 30.02 in 10.0 mi NNW 16.1 mph - N/A   Partly Cloudy
1:15 PM 32.0 °F 21.2 °F 21.2 °F 64% 30.03 in 10.0 mi NNW 16.1 mph - N/A   Scattered Clouds
1:35 PM 32.0 °F 20.5 °F 21.2 °F 64% 30.02 in 10.0 mi NNW 18.4 mph - N/A   Scattered Clouds
1:55 PM 32.0 °F 20.8 °F 21.2 °F 64% 30.02 in 10.0 mi NNW 17.3 mph 24.2 mph N/A   Mostly Cloudy
2:15 PM 32.0 °F 20.5 °F 21.2 °F 64% 30.02 in 10.0 mi NNW 18.4 mph 25.3 mph N/A   Mostly Cloudy
2:35 PM 32.0 °F 20.8 °F 21.2 °F 64% 30.02 in 10.0 mi NNW 17.3 mph - N/A   Overcast
2:55 PM 32.0 °F 20.8 °F 21.2 °F 64% 30.03 in 10.0 mi NNW 17.3 mph 24.2 mph N/A   Overcast
3:15 PM 32.0 °F 20.1 °F 21.2 °F 64% 30.03 in 10.0 mi NNW 19.6 mph - N/A   Overcast
3:35 PM 33.8 °F 22.8 °F 23.0 °F 65% 30.03 in 10.0 mi NNW 18.4 mph 24.2 mph N/A   Overcast
3:55 PM 33.8 °F 23.5 °F 21.2 °F 60% 30.04 in 10.0 mi NNW 16.1 mph 23.0 mph N/A   Overcast
4:15 PM 32.0 °F 22.5 °F 21.2 °F 64% 30.05 in 10.0 mi NNW 12.7 mph 21.9 mph N/A   Overcast
4:35 PM 32.0 °F 20.5 °F 21.2 °F 64% 30.05 in 10.0 mi NNW 18.4 mph - N/A   Overcast
4:55 PM 32.0 °F 21.2 °F 21.2 °F 64% 30.06 in 10.0 mi NNW 16.1 mph - N/A   Overcast
5:15 PM 32.0 °F 21.6 °F 21.2 °F 64% 30.07 in 10.0 mi NNW 15.0 mph - N/A   Overcast
5:35 PM 32.0 °F 22.1 °F 21.2 °F 64% 30.07 in 10.0 mi NNW 13.8 mph - N/A   Overcast
5:55 PM 33.8 °F 25.3 °F 21.2 °F 60% 30.08 in 10.0 mi NNW 11.5 mph - N/A   Overcast
6:15 PM 33.8 °F 24.8 °F 21.2 °F 60% 30.08 in 10.0 mi NNW 12.7 mph - N/A   Overcast
6:35 PM 32.0 °F 22.5 °F 21.2 °F 64% 30.09 in 10.0 mi NNW 12.7 mph - N/A   Overcast
6:55 PM 32.0 °F 22.1 °F 21.2 °F 64% 30.10 in 10.0 mi NNW 13.8 mph - N/A   Overcast
7:15 PM 32.0 °F 23.6 °F 21.2 °F 64% 30.11 in 10.0 mi NNW 10.4 mph - N/A   Overcast
7:35 PM 32.0 °F 23.6 °F 19.4 °F 60% 30.12 in 10.0 mi NNW 10.4 mph - N/A   Overcast
7:55 PM 32.0 °F 24.8 °F 21.2 °F 64% 30.12 in 10.0 mi NNW 8.1 mph - N/A   Mostly Cloudy
8:15 PM 30.2 °F 24.3 °F 19.4 °F 64% 30.12 in 10.0 mi NNW 5.8 mph - N/A   Mostly Cloudy
8:35 PM 30.2 °F 25.4 °F 19.4 °F 64% 30.13 in 10.0 mi NW 4.6 mph - N/A   Mostly Cloudy
8:55 PM 30.2 °F 25.4 °F 19.4 °F 64% 30.13 in 10.0 mi NW 4.6 mph - N/A   Mostly Cloudy
9:15 PM 30.2 °F 24.3 °F 19.4 °F 64% 30.13 in 10.0 mi NW 5.8 mph - N/A   Mostly Cloudy
9:35 PM 30.2 °F 25.4 °F 19.4 °F 64% 30.14 in 10.0 mi Variable 4.6 mph - N/A   Overcast
9:55 PM 28.4 °F 23.3 °F 19.4 °F 69% 30.14 in 10.0 mi WNW 4.6 mph - N/A   Overcast
10:15 PM 28.4 °F 21.2 °F 19.4 °F 69% 30.14 in 10.0 mi NW 6.9 mph - N/A   Overcast
10:35 PM 28.4 °F 21.2 °F 19.4 °F 69% 30.14 in 10.0 mi NNW 6.9 mph - N/A   Mostly Cloudy
10:55 PM 28.4 °F 23.3 °F 17.6 °F 64% 30.15 in 10.0 mi NNW 4.6 mph - N/A   Partly Cloudy
11:15 PM 26.6 °F 21.2 °F 17.6 °F 69% 30.15 in 10.0 mi NW 4.6 mph - N/A   Scattered Clouds
11:35 PM 26.6 °F 22.6 °F 17.6 °F 69% 30.15 in 10.0 mi NW 3.5 mph - N/A   Partly Cloudy
11:55 PM 26.6 °F 20.0 °F 17.6 °F 69% 30.16 in 10.0 mi NNW 5.8 mph - N/A   Clear